Regional Weather Roundup
Issued by NWS Cleveland, OH

Home | Current Version | Previous Version | Graphics & Text | Print | Product List | Glossary On
Versions: 1 2 3 4 5 6 7 8 9 10 11 12 13 14 15 16 17 18 19 20 21 22 23 24 25 26 27 28 29 30 31 32 33 34 35 36 37 38 39 40 41 42 43 44 45 46 47 48 49 50
000
ASUS41 KCLE 301800
RWRCLE
OHIO REGIONAL WEATHER ROUNDUP
NATIONAL WEATHER SERVICE WILMINGTON, OH
200 PM EDT SAT MAY 30 2015

NOTE: "FAIR" INDICATES FEW OR NO CLOUDS BELOW 12,000 FEET WITH NO
SIGNIFICANT WEATHER AND/OR OBSTRUCTIONS TO VISIBILITY.

OHZ001>008-015>018-024>027-034-035-043-044-301900-
   NORTHWEST OHIO

CITY           SKY/WX    TMP DP  RH WIND       PRES   REMARKS
DEFIANCE       TSTM      76  67  73 VRB7G16   29.99S
FINDLAY        MOSUNNY   82  69  64 W7        29.99F
TOLEDO EXPRESS PTSUNNY   82  64  54 SW10G21   29.97F
TOLEDO EXEC    PTSUNNY   83  64  52 SW15      29.98F
LIMA           LGT RAIN  81  67  62 S9        30.00F
$$

OHZ009>014-019>023-028>033-038-089-301900-
   NORTHEAST OHIO

CITY           SKY/WX    TMP DP  RH WIND       PRES   REMARKS
CLE-HOPKINS    PTSUNNY   75  67  76 S10       30.04S
CLE-LAKEFRONT  MOSUNNY   78  65  63 S15G22    30.00S
CUY CO. ARPT   CLOUDY    77  70  78 S16       30.03S
LORAIN-ELYRIA  PTSUNNY   76  70  82 SW8       30.02F
ASHTABULA      MOSUNNY   77  68  73 SW12      30.03S THUNDER
AKRON-CANTON   PTSUNNY   78  67  68 S13       30.05F
WOOSTER        NOT AVBL
MANSFIELD      MOSUNNY   81  68  64 SW12      30.03F
YOUNGSTOWN     PTSUNNY   80  66  62 SW17G26   30.05S
$$

OHZ042-051>053-060>062-070>072-077>081-301900-
  SOUTHWEST OHIO

CITY           SKY/WX    TMP DP  RH WIND       PRES   REMARKS
CINC-COVINGTON PTSUNNY   82  65  56 S18       30.04F
CINC-LUNKEN    LGT RAIN  78  69  73 S12       30.03F
HAMILTON       MOSUNNY   81  70  69 W6        30.02F
DAYTON         NOT AVBL
WRIGHT-PAT AFB NOT AVBL
DAYTON GENERAL MOSUNNY   83  65  54 SW9G17    30.02F
WILMINGTON     SUNNY     85  63  47 SW16      30.03F
$$

OHZ036-037-039>041-045>050-054>059-063>069-073>076-082>088-301900-
  CENTRAL AND SOUTHEAST OHIO

CITY           SKY/WX    TMP DP  RH WIND       PRES   REMARKS
COLUMBUS       MOSUNNY   84  65  52 SW13G22   30.03F
OSU AIRPORT    MOSUNNY   85  65  51 SW15G21   30.02F
BOLTON FIELD   PTSUNNY   84  66  54 S12G21    30.04F
RICKENBACK AFB NOT AVBL
NEWARK         MOSUNNY   82  69  64 SW8       30.05F
MARION         PTSUNNY   83  64  52 SW10      30.02F
LANCASTER      LGT RAIN  77  69  76 W3        30.05F
ZANESVILLE     MOSUNNY   77  69  76 W3        30.06F
NEW PHILLY     CLOUDY    78  69  73 S7        30.07F
$$


USA.gov is the U.S. government's official web portal to all federal, state and local government web resources and services.